Hourly Data Report for April 18, 2017

MIRAMICHI RCS
NEW BRUNSWICK

47°00'34.000" N
65°27'54.000" W
33.00 m
8100989
71744
ACQ

Download Data

Hourly Data (April 2017)
Hourly Data Report for April 18, 2017
TIME
LST
Temp Definition
°C
Dew Point Definition
°C
Rel Hum Definition
%
Precip. Amount Definition
mm

Wind Dir Definition
10's deg

Wind Spd Definition
km/h
Visibility Definition
km
Stn Press Definition
kPa
Hmdx Definition


Wind Chill Definition


Weather Definition


00:00 -1.4 -3.2 88 0.0 2 8   101.92   -4 LegendNANA
01:00 -1.8 -3.9 86 0.0 2 9   101.95   -5 LegendNANA
02:00 -1.9 -4.4 83 0.0 2 9   102.00   -5 LegendNANA
03:00 -2.1 -4.8 82 0.0 3 10   102.06   -6 LegendNANA
04:00 -2.3 -5.4 79 0.0 4 9   102.15   -6 LegendNANA
05:00 -2.5 -5.6 79 0.0 3 9   102.25   -6 LegendNANA
06:00 -2.7 -5.6 81 0.0 2 7   102.38   -6 LegendNANA
07:00 -1.9 -5.1 79 0.0 3 10   102.50   -6 LegendNANA
08:00 -1.2 -4.0 81 0.0 4 8   102.61   -4 LegendNANA
09:00 0.5 -3.6 74 0.0 5 14   102.69     LegendNANA
10:00 1.1 -4.7 65 0.0 7 16   102.78     LegendNANA
11:00 0.6 -4.4 69 0.0 5 12   102.86     LegendNANA
12:00 0.3 -4.7 69 0.0 6 14   102.91     LegendNANA
13:00 1.2 -4.6 65 0.0 6 11   102.93     LegendNANA
14:00 0.8 -4.6 67 0.0 7 16   102.99     LegendNANA
15:00 0.5 -4.4 70 0.0 6 14   103.06     LegendNANA
16:00 0.2 -4.6 71 0.0 6 13   103.10     LegendNANA
17:00 0.5 -4.8 68 0.0 8 13   103.11     LegendNANA
18:00 0.1 -5.8 65 0.0 6 8   103.15     LegendNANA
19:00 -0.6 -5.8 68 0.0 6 10   103.21   -4 LegendNANA
20:00 -2.0 -5.5 77 0.0 7 10   103.27   -6 LegendNANA
21:00 -3.5 -5.7 85 0.0 10 6   103.30   -6 LegendNANA
22:00 -3.5 -5.7 84 0.0 9 6   103.34   -6 LegendNANA
23:00 -4.4 -6.0 89 0.0 9 5   103.34   -7 LegendNANA

Notes on Data Quality.

Legend

  • E = Estimated
  • M = Missing
  • NA = Not Available*
  • [empty] = Indicates an unobserved value
Date modified: